Hourly Weather Otradnyy

Today, 30 July, Friday

Time Temperature Precipitation Wind Pressure Humidity
00:00 +21°C° 0.1 mm 4 mps 749 mmHg 60%
01:00 +20°C° 0.1 mm 4 mps 749 mmHg 67%
02:00 +19°C° 0.1 mm 3 mps 749 mmHg 75%
03:00 +18°C° 0 mm 3 mps 749 mmHg 84%
04:00 +19°C° 0.2 mm 3 mps 749 mmHg 85%
05:00 +19°C° 0.2 mm 3 mps 749 mmHg 85%
06:00 +20°C° 0.2 mm 4 mps 749 mmHg 85%
07:00 +22°C° 0 mm 4 mps 749 mmHg 76%
08:00 +26°C° 0 mm 5 mps 749 mmHg 66%
09:00 +28°C° 0 mm 6 mps 749 mmHg 57%
10:00 +29°C° 0 mm 6 mps 749 mmHg 51%
11:00 +30°C° 0 mm 6 mps 749 mmHg 45%
12:00 +33°C° 0 mm 7 mps 749 mmHg 39%
13:00 +33°C° 0 mm 6 mps 749 mmHg 37%
14:00 +33°C° 0 mm 6 mps 749 mmHg 35%
15:00 +34°C° 0 mm 6 mps 749 mmHg 34%
16:00 +33°C° 0 mm 5 mps 748 mmHg 37%
17:00 +32°C° 0 mm 4 mps 748 mmHg 40%
18:00 +30°C° 0 mm 3 mps 748 mmHg 43%
19:00 +28°C° 0 mm 2 mps 748 mmHg 50%
20:00 +26°C° 0 mm 2 mps 749 mmHg 56%
21:00 +24°C° 0 mm 1 mps 749 mmHg 62%
22:00 +24°C° 0.2 mm 1 mps 749 mmHg 67%
23:00 +23°C° 0.2 mm 1 mps 749 mmHg 72%

Tomorrow, 31 July, Saturday

Time Temperature Precipitation Wind Pressure Humidity
00:00 +23°C° 0.2 mm 1 mps 749 mmHg 77%
01:00 +22°C° 0.6 mm 1 mps 749 mmHg 79%
02:00 +21°C° 0.6 mm 2 mps 749 mmHg 81%
03:00 +21°C° 0.6 mm 2 mps 748 mmHg 83%
04:00 +21°C° 0.1 mm 2 mps 748 mmHg 82%
05:00 +23°C° 0.1 mm 2 mps 748 mmHg 81%
06:00 +22°C° 0.1 mm 3 mps 748 mmHg 81%
07:00 +25°C° 0 mm 3 mps 748 mmHg 72%
08:00 +27°C° 0 mm 4 mps 748 mmHg 63%
09:00 +29°C° 0 mm 5 mps 748 mmHg 54%
10:00 +30°C° 0 mm 5 mps 748 mmHg 49%
11:00 +33°C° 0 mm 6 mps 748 mmHg 44%
12:00 +34°C° 0 mm 6 mps 748 mmHg 39%
13:00 +34°C° 0 mm 6 mps 748 mmHg 39%
14:00 +34°C° 0 mm 6 mps 748 mmHg 38%
15:00 +34°C° 0 mm 6 mps 748 mmHg 38%
16:00 +32°C° 0.6 mm 5 mps 748 mmHg 51%
17:00 +28°C° 0.6 mm 4 mps 749 mmHg 64%
18:00 +25°C° 0.6 mm 3 mps 749 mmHg 77%
19:00 +25°C° 0.3 mm 3 mps 749 mmHg 79%
20:00 +24°C° 0.3 mm 3 mps 750 mmHg 81%
21:00 +23°C° 0.3 mm 2 mps 750 mmHg 83%
22:00 +23°C° 0 mm 2 mps 750 mmHg 81%
23:00 +21°C° 0 mm 2 mps 751 mmHg 80%

Day after tomorrow, 1 August, Sunday

Time Temperature Precipitation Wind Pressure Humidity
00:00 +21°C° 0 mm 2 mps 751 mmHg 78%
01:00 +20°C° 0 mm 2 mps 751 mmHg 78%
02:00 +19°C° 0 mm 2 mps 751 mmHg 79%
03:00 +19°C° 0 mm 2 mps 752 mmHg 79%
04:00 +20°C° 0 mm 2 mps 752 mmHg 76%
05:00 +21°C° 0 mm 2 mps 752 mmHg 73%
06:00 +23°C° 0 mm 2 mps 753 mmHg 69%
07:00 +25°C° 0 mm 3 mps 753 mmHg 60%
08:00 +27°C° 0 mm 3 mps 753 mmHg 50%
09:00 +30°C° 0 mm 4 mps 753 mmHg 41%
10:00 +32°C° 0 mm 5 mps 753 mmHg 37%
11:00 +33°C° 0 mm 6 mps 753 mmHg 33%
12:00 +34°C° 0 mm 6 mps 753 mmHg 30%
13:00 +34°C° 0 mm 6 mps 753 mmHg 28%
14:00 +34°C° 0 mm 6 mps 753 mmHg 26%
15:00 +34°C° 0 mm 6 mps 753 mmHg 24%
16:00 +33°C° 0 mm 5 mps 753 mmHg 27%
17:00 +32°C° 0 mm 4 mps 753 mmHg 30%
18:00 +30°C° 0 mm 3 mps 753 mmHg 33%
19:00 +28°C° 0 mm 2 mps 753 mmHg 38%
20:00 +26°C° 0 mm 2 mps 753 mmHg 43%
21:00 +24°C° 0 mm 1 mps 754 mmHg 49%
22:00 +23°C° 0 mm 1 mps 754 mmHg 51%
23:00 +23°C° 0 mm 1 mps 754 mmHg 54%

2 August, Monday

Time Temperature Precipitation Wind Pressure Humidity
00:00 +20°C° 0 mm 0 mps 754 mmHg 56%
01:00 +20°C° 0 mm 0 mps 754 mmHg 58%
02:00 +19°C° 0 mm 0 mps 754 mmHg 60%
03:00 +19°C° 0 mm 0 mps 754 mmHg 61%
04:00 +20°C° 0 mm 0 mps 755 mmHg 58%
05:00 +21°C° 0 mm 0 mps 755 mmHg 55%
06:00 +24°C° 0 mm 1 mps 755 mmHg 51%
07:00 +26°C° 0 mm 1 mps 755 mmHg 46%
08:00 +29°C° 0 mm 1 mps 755 mmHg 40%
09:00 +31°C° 0 mm 2 mps 755 mmHg 35%
10:00 +32°C° 0 mm 2 mps 755 mmHg 31%
11:00 +34°C° 0 mm 2 mps 754 mmHg 27%
12:00 +36°C° 0 mm 3 mps 754 mmHg 23%
13:00 +36°C° 0 mm 3 mps 754 mmHg 23%
14:00 +37°C° 0 mm 3 mps 753 mmHg 22%
15:00 +37°C° 0 mm 3 mps 753 mmHg 21%
16:00 +37°C° 0 mm 2 mps 753 mmHg 23%
17:00 +35°C° 0 mm 1 mps 753 mmHg 26%
18:00 +34°C° 0 mm 1 mps 753 mmHg 29%
19:00 +32°C° 0 mm 1 mps 753 mmHg 32%
20:00 +30°C° 0 mm 2 mps 753 mmHg 35%
21:00 +27°C° 0 mm 2 mps 753 mmHg 38%
22:00 +27°C° 0 mm 2 mps 753 mmHg 43%
23:00 +26°C° 0 mm 2 mps 753 mmHg 47%

3 August, Tuesday

Time Temperature Precipitation Wind Pressure Humidity
00:00 +25°C° 0 mm 2 mps 753 mmHg 51%
01:00 +24°C° 0 mm 2 mps 753 mmHg 53%
02:00 +24°C° 0 mm 2 mps 753 mmHg 56%
03:00 +23°C° 0 mm 2 mps 753 mmHg 58%
04:00 +24°C° 0 mm 2 mps 753 mmHg 55%
05:00 +25°C° 0 mm 2 mps 753 mmHg 52%
06:00 +26°C° 0 mm 2 mps 753 mmHg 49%
07:00 +30°C° 0 mm 3 mps 753 mmHg 41%
08:00 +34°C° 0 mm 4 mps 753 mmHg 34%
09:00 +38°C° 0 mm 6 mps 752 mmHg 27%
10:00 +39°C° 0 mm 6 mps 752 mmHg 23%
11:00 +41°C° 0 mm 6 mps 752 mmHg 19%
12:00 +42°C° 0 mm 6 mps 751 mmHg 15%
13:00 +42°C° 0 mm 6 mps 751 mmHg 15%
14:00 +42°C° 0 mm 6 mps 751 mmHg 15%
15:00 +42°C° 0 mm 6 mps 750 mmHg 14%
16:00 +41°C° 0 mm 5 mps 750 mmHg 16%
17:00 +38°C° 0 mm 4 mps 750 mmHg 18%
18:00 +37°C° 0 mm 3 mps 750 mmHg 19%
19:00 +35°C° 0 mm 3 mps 750 mmHg 22%
20:00 +32°C° 0 mm 2 mps 751 mmHg 25%
21:00 +31°C° 0 mm 2 mps 751 mmHg 28%
22:00 +29°C° 0 mm 2 mps 751 mmHg 30%
23:00 +28°C° 0 mm 2 mps 751 mmHg 32%

4 August, Wednesday

Time Temperature Precipitation Wind Pressure Humidity
00:00 +27°C° 0 mm 2 mps 751 mmHg 35%
01:00 +26°C° 0 mm 2 mps 751 mmHg 36%
02:00 +26°C° 0 mm 2 mps 751 mmHg 37%
03:00 +25°C° 0 mm 2 mps 751 mmHg 39%
04:00 +26°C° 0 mm 2 mps 751 mmHg 38%
05:00 +27°C° 0 mm 2 mps 751 mmHg 37%
06:00 +28°C° 0 mm 2 mps 751 mmHg 36%
07:00 +30°C° 0 mm 2 mps 751 mmHg 33%
08:00 +31°C° 0 mm 2 mps 751 mmHg 31%
09:00 +34°C° 0 mm 2 mps 752 mmHg 28%
10:00 +36°C° 0 mm 2 mps 751 mmHg 25%
11:00 +37°C° 0 mm 3 mps 751 mmHg 22%
12:00 +39°C° 0 mm 3 mps 751 mmHg 18%
13:00 +40°C° 0 mm 4 mps 751 mmHg 20%
14:00 +39°C° 0 mm 5 mps 751 mmHg 21%
15:00 +39°C° 0 mm 6 mps 751 mmHg 22%
16:00 +37°C° 0 mm 5 mps 751 mmHg 25%
17:00 +36°C° 0 mm 5 mps 751 mmHg 27%
18:00 +35°C° 0 mm 5 mps 751 mmHg 29%
19:00 +33°C° 0 mm 5 mps 751 mmHg 33%
20:00 +30°C° 0 mm 4 mps 751 mmHg 37%
21:00 +29°C° 0 mm 4 mps 751 mmHg 41%
22:00 +28°C° 0 mm 5 mps 751 mmHg 43%
23:00 +28°C° 0 mm 6 mps 751 mmHg 45%
Show more